Greeley, CO

5:18 PM MDT on June 22, 2017 (GMT -0600)
Greeley-Weld County

Weather History for KGXY - May, 2013

Change the Weather History Date:

Friday, May 10, 2013

  Actual Average Record
Temperature  
Mean Temperature 55 °F -  
Max Temperature 68 °F - 89 °F (1991)
Min Temperature 42 °F - 28 °F (1979)
Degree Days  
Heating Degree Days 10    
Month to date heating degree days  
Cooling Degree Days 0    
Month to date cooling degree days  
Growing Degree Days 5 (Base 50)    
Moisture  
Dew Point 40 °F    
Average Humidity 62    
Maximum Humidity 82    
Minimum Humidity 34    
Precipitation  
Precipitation 0.00 in - 0.45 in (2005)
Sea Level Pressure  
Sea Level Pressure 30.21 in    
Wind  
Wind Speed 6 mph (NNW)    
Max Wind Speed 15 mph    
Max Gust Speed 22 mph    
Visibility 10 miles    
Events Thunderstorm    
T = Trace of Precipitation, MM = Missing Value Source: NWS Daily Summary

Daily Weather History Graph

Daily Weather History Graph

Search for Another Location

Airport or City:

Trip Planner

Search our weather history database for the weather conditions in past years. The results will help you decide how hot, cold, wet, or windy it might be!

Date:

Astronomy

May. 10, 2013 Rise Set
Actual Time 5:46 AM MDT 8:03 PM MDT
Civil Twilight 5:16 AM MDT 8:34 PM MDT
Nautical Twilight 4:38 AM MDT 9:11 PM MDT
Astronomical Twilight 3:57 AM MDT 9:53 PM MDT
Moon 6:12 AM MDT (5/10) 8:55 PM MDT (5/10)
Length of Visible Light 15h 17m
Length of Day
14h 16m
New Moon, 1% of the Moon is Illuminated
May 10
New Moon
May 17
First Quarter
May 24
Full
May 31
Last Quarter
Jun 8
New

Hourly Weather History & Observations

Time (MDT) Temp. Windchill Dew Point Humidity Pressure Visibility Wind Dir Wind Speed Gust Speed Precip Events Conditions
12:15 AM 48.2 °F - 42.8 °F 82% 30.20 in 10.0 mi NNW 3.5 mph - N/A   Mostly Cloudy
12:35 AM 48.2 °F - 42.8 °F 82% 30.21 in 10.0 mi NW 5.8 mph - N/A   Partly Cloudy
12:55 AM 46.4 °F 42.9 °F 41.0 °F 81% 30.20 in 10.0 mi NNW 6.9 mph - N/A   Clear
1:15 AM 46.4 °F 43.5 °F 39.2 °F 76% 30.20 in 10.0 mi NNW 5.8 mph - N/A   Clear
1:35 AM 46.4 °F 44.3 °F 39.2 °F 76% 30.20 in 10.0 mi NNW 4.6 mph - N/A   Clear
1:55 AM 46.4 °F 42.9 °F 39.2 °F 76% 30.19 in 10.0 mi NNW 6.9 mph - N/A   Clear
2:15 AM 44.6 °F 42.2 °F 39.2 °F 81% 30.19 in 10.0 mi NNE 4.6 mph - N/A   Clear
2:35 AM 44.6 °F 41.4 °F 39.2 °F 81% 30.18 in 10.0 mi North 5.8 mph - N/A   Clear
2:55 AM 44.6 °F 41.4 °F 39.2 °F 81% 30.18 in 10.0 mi North 5.8 mph - N/A   Clear
3:15 AM 44.6 °F 43.1 °F 39.2 °F 81% 30.19 in 10.0 mi NNE 3.5 mph - N/A   Clear
3:35 AM 44.6 °F - 39.2 °F 81% 30.19 in 10.0 mi Calm Calm - N/A   Clear
3:55 AM 42.8 °F 41.1 °F 37.4 °F 81% 30.19 in 10.0 mi WSW 3.5 mph - N/A   Clear
4:15 AM 42.8 °F 39.3 °F 37.4 °F 81% 30.18 in 10.0 mi WNW 5.8 mph - N/A   Clear
4:55 AM 42.8 °F 40.1 °F 37.4 °F 81% 30.19 in 10.0 mi NNW 4.6 mph - N/A   Scattered Clouds
5:15 AM 42.8 °F - 37.4 °F 81% 30.19 in 10.0 mi Calm Calm - N/A   Clear
5:35 AM 42.8 °F - 37.4 °F 81% 30.19 in 10.0 mi Calm Calm - N/A   Mostly Cloudy
6:15 AM 42.8 °F 39.3 °F 37.4 °F 81% 30.20 in 8.0 mi WNW 5.8 mph - N/A   Mostly Cloudy
6:35 AM 44.6 °F 42.2 °F 39.2 °F 81% 30.21 in 10.0 mi West 4.6 mph - N/A   Overcast
7:15 AM 46.4 °F 44.3 °F 41.0 °F 81% 30.22 in 10.0 mi West 4.6 mph - N/A   Overcast
7:35 AM 46.4 °F 42.9 °F 41.0 °F 81% 30.23 in 10.0 mi WNW 6.9 mph - N/A   Overcast
7:55 AM 46.4 °F 42.9 °F 41.0 °F 81% 30.23 in 10.0 mi WNW 6.9 mph - N/A   Overcast
8:15 AM 48.2 °F - 42.8 °F 82% 30.22 in 10.0 mi WNW 5.8 mph - N/A   Mostly Cloudy
8:35 AM 50.0 °F - 42.8 °F 76% 30.23 in 10.0 mi WNW 6.9 mph - N/A   Partly Cloudy
8:55 AM 51.8 °F - 44.6 °F 76% 30.23 in 10.0 mi WNW 5.8 mph - N/A   Clear
9:15 AM 53.6 °F - 44.6 °F 72% 30.23 in 10.0 mi West 4.6 mph - N/A   Clear
9:35 AM 53.6 °F - 44.6 °F 72% 30.23 in 10.0 mi WNW 4.6 mph - N/A   Clear
9:55 AM 55.4 °F - 42.8 °F 63% 30.23 in 10.0 mi NW 4.6 mph - N/A   Clear
10:15 AM 55.4 °F - 42.8 °F 63% 30.23 in 10.0 mi NW 5.8 mph - N/A   Clear
10:35 AM 57.2 °F - 44.6 °F 63% 30.23 in 10.0 mi Calm Calm - N/A   Clear
11:15 AM 60.8 °F - 42.8 °F 52% 30.23 in 10.0 mi NNE 4.6 mph - N/A   Partly Cloudy
11:35 AM 60.8 °F - 44.6 °F 55% 30.23 in 10.0 mi Calm Calm - N/A   Partly Cloudy
11:55 AM 62.6 °F - 44.6 °F 52% 30.22 in 10.0 mi NNE 8.1 mph - N/A   Clear
12:15 PM 62.6 °F - 44.6 °F 52% 30.22 in 10.0 mi ENE 10.4 mph - N/A   Partly Cloudy
12:55 PM 64.4 °F - 44.6 °F 49% 30.21 in 10.0 mi NE 6.9 mph - N/A   Mostly Cloudy
1:15 PM 64.4 °F - 44.6 °F 49% 30.20 in 10.0 mi ENE 12.7 mph 18.4 mph N/A   Mostly Cloudy
1:35 PM 64.4 °F - 44.6 °F 49% 30.20 in 10.0 mi ENE 6.9 mph - N/A Thunderstorm Scattered Clouds
1:55 PM 64.4 °F - 44.6 °F 49% 30.20 in 10.0 mi SE 8.1 mph - N/A   Mostly Cloudy
2:15 PM 62.6 °F - 44.6 °F 52% 30.20 in 10.0 mi WSW 15.0 mph 21.9 mph N/A   Overcast
2:35 PM 64.4 °F - 44.6 °F 49% 30.20 in 10.0 mi SW 13.8 mph - N/A   Overcast
2:55 PM 64.4 °F - 44.6 °F 49% 30.20 in 10.0 mi SSW 6.9 mph - N/A   Mostly Cloudy
3:15 PM 66.2 °F - 42.8 °F 43% 30.18 in 10.0 mi WSW 6.9 mph - N/A   Overcast
3:35 PM 68.0 °F - 42.8 °F 40% 30.18 in 10.0 mi SW 8.1 mph - N/A   Mostly Cloudy
3:55 PM 66.2 °F - 37.4 °F 35% 30.18 in 10.0 mi NNW 3.5 mph - N/A   Mostly Cloudy
4:35 PM 66.2 °F - 39.2 °F 37% 30.17 in 10.0 mi NNW 4.6 mph - N/A   Scattered Clouds
4:55 PM 66.2 °F - 37.4 °F 35% 30.18 in 10.0 mi NE 5.8 mph - N/A   Mostly Cloudy
5:15 PM 66.2 °F - 37.4 °F 35% 30.18 in 10.0 mi NNE 15.0 mph - N/A   Mostly Cloudy
5:35 PM 64.4 °F - 35.6 °F 34% 30.18 in 10.0 mi North 9.2 mph - N/A   Scattered Clouds
5:55 PM 66.2 °F - 37.4 °F 35% 30.18 in 10.0 mi North 11.5 mph - N/A   Mostly Cloudy
6:15 PM 66.2 °F - 37.4 °F 35% 30.18 in 10.0 mi NNE 13.8 mph 21.9 mph N/A   Mostly Cloudy
6:35 PM 66.2 °F - 37.4 °F 35% 30.19 in 10.0 mi NNE 15.0 mph 19.6 mph N/A   Clear
6:55 PM 66.2 °F - 37.4 °F 35% 30.19 in 10.0 mi North 10.4 mph - N/A   Partly Cloudy
7:15 PM 64.4 °F - 37.4 °F 37% 30.19 in 10.0 mi NNE 10.4 mph - N/A   Scattered Clouds
7:35 PM 60.8 °F - 39.2 °F 45% 30.20 in 10.0 mi NNE 4.6 mph - N/A   Partly Cloudy
7:55 PM 59.0 °F - 39.2 °F 48% 30.21 in 10.0 mi NE 6.9 mph - N/A   Clear
8:15 PM 55.4 °F - 39.2 °F 54% 30.22 in 10.0 mi North 5.8 mph - N/A   Clear
8:35 PM 55.4 °F - 39.2 °F 54% 30.23 in 10.0 mi NNE 6.9 mph - N/A   Clear
8:55 PM 51.8 °F - 39.2 °F 62% 30.23 in 10.0 mi NNE 6.9 mph - N/A   Clear
9:15 PM 51.8 °F - 39.2 °F 62% 30.25 in 10.0 mi North 8.1 mph - N/A   Clear
9:35 PM 50.0 °F - 39.2 °F 66% 30.25 in 10.0 mi North 6.9 mph - N/A   Clear
9:55 PM 50.0 °F - 39.2 °F 66% 30.26 in 10.0 mi North 8.1 mph - N/A   Clear
10:15 PM 48.2 °F - 39.2 °F 71% 30.27 in 10.0 mi North 9.2 mph - N/A   Clear
10:35 PM 48.2 °F - 37.4 °F 66% 30.28 in 10.0 mi North 8.1 mph - N/A   Clear
10:55 PM 48.2 °F - 37.4 °F 66% 30.28 in 10.0 mi North 9.2 mph - N/A   Clear
11:15 PM 50.0 °F - 37.4 °F 62% 30.30 in 10.0 mi NNE 13.8 mph - N/A   Clear
11:35 PM 50.0 °F - 37.4 °F 62% 30.31 in 10.0 mi NNE 12.7 mph - N/A   Clear
11:55 PM 48.2 °F - 37.4 °F 66% 30.32 in 10.0 mi NNE 12.7 mph - N/A   Clear